When you browse on this site, cookies collect data to enhance your experience and personalize the content and advertising you see.
Visit our Privacy Policy to learn more. By continuing to use the site, you agree to this use of cookies and data.

Meteo orario Tykhe

Oggi, 10 Luglio, Venerdi

Tempo Temperatura Precipitazioni Vento Pressione Umidità
00:00 +17°C° 0 mm 3 m/s 755 mm Hg 77%
01:00 +16°C° 0 mm 3 m/s 756 mm Hg 80%
02:00 +16°C° 0 mm 3 m/s 756 mm Hg 85%
03:00 +16°C° 0 mm 2 m/s 756 mm Hg 84%
04:00 +16°C° 0 mm 2 m/s 756 mm Hg 84%
05:00 +17°C° 0 mm 2 m/s 756 mm Hg 84%
06:00 +18°C° 0 mm 2 m/s 757 mm Hg 75%
07:00 +20°C° 0 mm 2 m/s 757 mm Hg 67%
08:00 +23°C° 0 mm 2 m/s 757 mm Hg 56%
09:00 +24°C° 0 mm 3 m/s 757 mm Hg 53%
10:00 +25°C° 0 mm 3 m/s 757 mm Hg 50%
11:00 +26°C° 0 mm 4 m/s 757 mm Hg 47%
12:00 +27°C° 0 mm 4 m/s 757 mm Hg 47%
13:00 +27°C° 0 mm 4 m/s 756 mm Hg 46%
14:00 +27°C° 0 mm 4 m/s 756 mm Hg 45%
15:00 +27°C° 0 mm 3 m/s 756 mm Hg 46%
16:00 +27°C° 0 mm 3 m/s 756 mm Hg 47%
17:00 +27°C° 0 mm 3 m/s 756 mm Hg 49%
18:00 +25°C° 0 mm 2 m/s 756 mm Hg 53%
19:00 +23°C° 0 mm 2 m/s 757 mm Hg 58%
20:00 +20°C° 0 mm 2 m/s 757 mm Hg 62%
21:00 +20°C° 0 mm 2 m/s 757 mm Hg 63%
22:00 +19°C° 0 mm 2 m/s 757 mm Hg 65%
23:00 +18°C° 0 mm 2 m/s 757 mm Hg 66%

Domani, 11 Luglio, Sabato

Tempo Temperatura Precipitazioni Vento Pressione Umidità
00:00 +18°C° 0 mm 2 m/s 757 mm Hg 68%
01:00 +18°C° 0 mm 2 m/s 757 mm Hg 69%
02:00 +17°C° 0 mm 2 m/s 757 mm Hg 71%
03:00 +17°C° 0 mm 2 m/s 757 mm Hg 72%
04:00 +17°C° 0 mm 2 m/s 757 mm Hg 73%
05:00 +17°C° 0 mm 2 m/s 757 mm Hg 75%
06:00 +19°C° 0 mm 3 m/s 757 mm Hg 68%
07:00 +21°C° 0 mm 3 m/s 757 mm Hg 62%
08:00 +23°C° 0 mm 4 m/s 757 mm Hg 56%
09:00 +26°C° 0 mm 4 m/s 757 mm Hg 51%
10:00 +27°C° 0 mm 4 m/s 757 mm Hg 46%
11:00 +28°C° 0 mm 4 m/s 757 mm Hg 42%
12:00 +28°C° 0 mm 4 m/s 756 mm Hg 41%
13:00 +29°C° 0 mm 4 m/s 756 mm Hg 40%
14:00 +29°C° 0 mm 4 m/s 755 mm Hg 38%
15:00 +29°C° 0 mm 4 m/s 755 mm Hg 40%
16:00 +29°C° 0 mm 4 m/s 755 mm Hg 42%
17:00 +28°C° 0 mm 4 m/s 754 mm Hg 44%
18:00 +26°C° 0 mm 4 m/s 754 mm Hg 50%
19:00 +25°C° 0 mm 4 m/s 754 mm Hg 55%
20:00 +22°C° 0 mm 3 m/s 754 mm Hg 60%
21:00 +21°C° 0 mm 3 m/s 754 mm Hg 64%
22:00 +20°C° 0 mm 3 m/s 754 mm Hg 67%
23:00 +20°C° 0 mm 3 m/s 754 mm Hg 70%

Dopodomani, 12 Luglio, Domenica

Tempo Temperatura Precipitazioni Vento Pressione Umidità
00:00 +19°C° 0 mm 3 m/s 753 mm Hg 72%
01:00 +19°C° 0 mm 4 m/s 753 mm Hg 74%
02:00 +18°C° 0 mm 4 m/s 753 mm Hg 75%
03:00 +18°C° 0 mm 4 m/s 753 mm Hg 76%
04:00 +18°C° 0 mm 4 m/s 752 mm Hg 77%
05:00 +19°C° 0 mm 4 m/s 752 mm Hg 78%
06:00 +21°C° 0 mm 4 m/s 752 mm Hg 73%
07:00 +23°C° 0 mm 4 m/s 752 mm Hg 68%
08:00 +26°C° 0 mm 5 m/s 752 mm Hg 63%
09:00 +28°C° 0.1 mm 5 m/s 751 mm Hg 60%
10:00 +30°C° 0.1 mm 5 m/s 751 mm Hg 56%
11:00 +32°C° 0.1 mm 4 m/s 751 mm Hg 53%
12:00 +33°C° 0.7 mm 4 m/s 751 mm Hg 52%
13:00 +33°C° 0.7 mm 4 m/s 750 mm Hg 51%
14:00 +33°C° 0.7 mm 4 m/s 750 mm Hg 50%
15:00 +33°C° 0.1 mm 4 m/s 749 mm Hg 52%
16:00 +33°C° 0.1 mm 4 m/s 749 mm Hg 54%
17:00 +32°C° 0.1 mm 5 m/s 748 mm Hg 56%
18:00 +30°C° 0.5 mm 5 m/s 748 mm Hg 61%
19:00 +28°C° 0.5 mm 5 m/s 748 mm Hg 65%
20:00 +27°C° 0.5 mm 5 m/s 748 mm Hg 70%
21:00 +25°C° 3.7 mm 4 m/s 748 mm Hg 78%
22:00 +23°C° 3.7 mm 4 m/s 748 mm Hg 85%
23:00 +22°C° 3.7 mm 4 m/s 747 mm Hg 93%

13 Luglio, Lunedi

Tempo Temperatura Precipitazioni Vento Pressione Umidità
00:00 +22°C° 0.2 mm 3 m/s 747 mm Hg 93%
01:00 +21°C° 0.2 mm 3 m/s 747 mm Hg 93%
02:00 +21°C° 0.2 mm 2 m/s 746 mm Hg 94%
03:00 +21°C° 0.8 mm 3 m/s 746 mm Hg 94%
04:00 +21°C° 0.8 mm 3 m/s 746 mm Hg 94%
05:00 +21°C° 0.8 mm 3 m/s 746 mm Hg 94%
06:00 +22°C° 0.5 mm 3 m/s 746 mm Hg 91%
07:00 +24°C° 0.5 mm 2 m/s 746 mm Hg 87%
08:00 +25°C° 0.5 mm 2 m/s 746 mm Hg 84%
09:00 +26°C° 0 mm 2 m/s 745 mm Hg 80%
10:00 +26°C° 0 mm 2 m/s 745 mm Hg 76%
11:00 +27°C° 0 mm 3 m/s 745 mm Hg 72%
12:00 +27°C° 0.1 mm 3 m/s 745 mm Hg 72%
13:00 +27°C° 0.1 mm 4 m/s 744 mm Hg 73%
14:00 +27°C° 0.1 mm 5 m/s 744 mm Hg 73%
15:00 +27°C° 0.1 mm 5 m/s 744 mm Hg 75%
16:00 +26°C° 0.1 mm 5 m/s 744 mm Hg 77%
17:00 +25°C° 0.1 mm 5 m/s 744 mm Hg 79%
18:00 +23°C° 0 mm 5 m/s 744 mm Hg 80%
19:00 +22°C° 0 mm 5 m/s 745 mm Hg 81%
20:00 +21°C° 0 mm 5 m/s 745 mm Hg 83%
21:00 +21°C° 0 mm 5 m/s 745 mm Hg 84%
22:00 +20°C° 0 mm 5 m/s 745 mm Hg 85%
23:00 +20°C° 0 mm 5 m/s 745 mm Hg 86%

14 Luglio, Martedi

Tempo Temperatura Precipitazioni Vento Pressione Umidità
00:00 +19°C° 0 mm 5 m/s 746 mm Hg 86%
01:00 +19°C° 0 mm 5 m/s 746 mm Hg 86%
02:00 +18°C° 0 mm 4 m/s 746 mm Hg 86%
03:00 +18°C° 0 mm 4 m/s 746 mm Hg 86%
04:00 +17°C° 0 mm 4 m/s 746 mm Hg 87%
05:00 +17°C° 0 mm 4 m/s 746 mm Hg 87%
06:00 +18°C° 0.1 mm 4 m/s 746 mm Hg 84%
07:00 +19°C° 0.1 mm 4 m/s 747 mm Hg 81%
08:00 +20°C° 0.1 mm 4 m/s 747 mm Hg 77%
09:00 +20°C° 0.2 mm 5 m/s 747 mm Hg 77%
10:00 +20°C° 0.2 mm 5 m/s 747 mm Hg 76%
11:00 +21°C° 0.2 mm 5 m/s 748 mm Hg 75%
12:00 +21°C° 0.3 mm 5 m/s 748 mm Hg 75%
13:00 +21°C° 0.3 mm 6 m/s 748 mm Hg 74%
14:00 +21°C° 0.3 mm 6 m/s 748 mm Hg 73%
15:00 +20°C° 0 mm 6 m/s 748 mm Hg 72%
16:00 +20°C° 0 mm 6 m/s 748 mm Hg 71%
17:00 +20°C° 0 mm 6 m/s 748 mm Hg 71%
18:00 +19°C° 0 mm 5 m/s 749 mm Hg 74%
19:00 +18°C° 0 mm 4 m/s 749 mm Hg 78%
20:00 +17°C° 0 mm 4 m/s 750 mm Hg 81%
21:00 +16°C° 0 mm 3 m/s 750 mm Hg 83%
22:00 +16°C° 0 mm 3 m/s 750 mm Hg 86%
23:00 +14°C° 0 mm 3 m/s 750 mm Hg 88%

15 Luglio, Mercoledi

Tempo Temperatura Precipitazioni Vento Pressione Umidità
00:00 +14°C° 0 mm 3 m/s 750 mm Hg 88%
01:00 +13°C° 0 mm 3 m/s 751 mm Hg 88%
02:00 +13°C° 0 mm 3 m/s 751 mm Hg 89%
03:00 +13°C° 0 mm 3 m/s 751 mm Hg 88%
04:00 +13°C° 0 mm 3 m/s 751 mm Hg 87%
05:00 +14°C° 0 mm 3 m/s 751 mm Hg 86%
06:00 +17°C° 0 mm 4 m/s 752 mm Hg 78%
07:00 +18°C° 0 mm 4 m/s 752 mm Hg 71%
08:00 +20°C° 0 mm 5 m/s 752 mm Hg 64%
09:00 +22°C° 0.1 mm 5 m/s 752 mm Hg 60%
10:00 +23°C° 0.1 mm 5 m/s 752 mm Hg 56%
11:00 +25°C° 0.1 mm 5 m/s 753 mm Hg 52%
12:00 +25°C° 0.1 mm 5 m/s 753 mm Hg 51%
13:00 +26°C° 0.1 mm 5 m/s 753 mm Hg 49%
14:00 +26°C° 0.1 mm 5 m/s 753 mm Hg 47%
15:00 +26°C° 0 mm 5 m/s 753 mm Hg 48%
16:00 +25°C° 0 mm 5 m/s 753 mm Hg 48%
17:00 +25°C° 0 mm 4 m/s 753 mm Hg 49%
18:00 +22°C° 0 mm 4 m/s 753 mm Hg 54%
19:00 +21°C° 0 mm 3 m/s 753 mm Hg 60%
20:00 +19°C° 0 mm 2 m/s 754 mm Hg 65%
21:00 +18°C° 0 mm 2 m/s 754 mm Hg 67%
22:00 +17°C° 0 mm 2 m/s 754 mm Hg 69%
23:00 +16°C° 0 mm 2 m/s 754 mm Hg 71%
Mostrare altro